Huron, SD

9:40 PM CST on January 20, 2017 (GMT -0600)
Huron Regional

Weather History for KHON - May, 2013

Change the Weather History Date:

Tuesday, May 14, 2013

  Actual Average Record
Temperature  
Mean Temperature 73 °F 58 °F  
Max Temperature 93 °F 70 °F 95 °F (1894)
Min Temperature 53 °F 45 °F 24 °F (1888)
Degree Days  
Heating Degree Days 0 8  
Month to date heating degree days 192 143  
Since 1 July heating degree days 8073 7521  
Cooling Degree Days 8 1  
Month to date cooling degree days 15 11  
Year to date cooling degree days 15 15  
Growing Degree Days 25 (Base 50)    
Moisture  
Dew Point 42 °F    
Average Humidity 33    
Maximum Humidity 62    
Minimum Humidity 7    
Precipitation  
Precipitation 0.00 in 0.10 in 0.93 in (1916)
Month to date precipitation 0.71 1.31  
Year to date precipitation 5.81 6.18  
Snow  
Snow 0.00 in 0.00 in T in (1907)
Month to date snowfall 0.0 0.1  
Since 1 July snowfall 60.1 44.0  
Snow Depth 0.00 in    
Sea Level Pressure  
Sea Level Pressure 29.66 in    
Wind  
Wind Speed 16 mph (NW)    
Max Wind Speed 35 mph    
Max Gust Speed 43 mph    
Visibility 10 miles    
Events      
T = Trace of Precipitation, MM = Missing Value Source: NWS Daily Summary

Daily Weather History Graph

Daily Weather History Graph

Search for Another Location

Airport or City:

Trip Planner

Search our weather history database for the weather conditions in past years. The results will help you decide how hot, cold, wet, or windy it might be!

Date:

Astronomy

May. 14, 2013 Rise Set
Actual Time 6:06 AM CDT 8:52 PM CDT
Civil Twilight 5:32 AM CDT 9:26 PM CDT
Nautical Twilight 4:50 AM CDT 10:09 PM CDT
Astronomical Twilight 4:01 AM CDT 10:58 PM CDT
Moon 9:47 AM CDT (5/14) 12:01 AM CDT (5/14)
Length of Visible Light 15h 53m
Length of Day
14h 46m
Waxing Crescent, 19% of the Moon is Illuminated
May 14
Waxing Crescent
May 17
First Quarter
May 24
Full
May 31
Last Quarter
Jun 8
New

Hourly Weather History & Observations

Time (CDT) Temp. Dew Point Humidity Pressure Visibility Wind Dir Wind Speed Gust Speed Precip Events Conditions
12:55 AM 62.1 °F 46.9 °F 58% 29.70 in 10.0 mi Calm Calm - N/A   Clear
1:55 AM 60.1 °F 46.9 °F 62% 29.67 in 10.0 mi SE 3.5 mph - N/A   Clear
2:55 AM 62.1 °F 45.0 °F 53% 29.65 in 10.0 mi South 6.9 mph - N/A   Clear
3:55 AM 64.0 °F 44.1 °F 48% 29.62 in 10.0 mi South 8.1 mph - N/A   Clear
4:55 AM 63.0 °F 45.0 °F 52% 29.60 in 10.0 mi South 9.2 mph - N/A   Clear
5:55 AM 60.1 °F 45.0 °F 57% 29.57 in 10.0 mi South 9.2 mph - N/A   Clear
6:55 AM 62.1 °F 46.0 °F 56% 29.53 in 10.0 mi South 10.4 mph - N/A   Clear
7:55 AM 66.9 °F 46.0 °F 47% 29.52 in 10.0 mi South 13.8 mph 23.0 mph N/A   Clear
8:55 AM 75.0 °F 48.9 °F 40% 29.54 in 10.0 mi WSW 3.5 mph - N/A   Clear
9:55 AM 84.9 °F 46.9 °F 27% 29.54 in 10.0 mi WNW 17.3 mph - N/A   Clear
10:55 AM 87.1 °F 46.9 °F 25% 29.56 in 10.0 mi NW 21.9 mph 29.9 mph N/A   Clear
11:55 AM 89.1 °F 46.9 °F 23% 29.59 in 10.0 mi NNW 25.3 mph 32.2 mph N/A   Clear
12:55 PM 91.9 °F 46.9 °F 21% 29.62 in 10.0 mi NNW 25.3 mph 34.5 mph N/A   Clear
1:55 PM 90.0 °F 44.1 °F 20% 29.64 in 10.0 mi NW 34.5 mph 41.4 mph N/A   Clear
2:55 PM 88.0 °F 34.0 °F 15% 29.67 in 10.0 mi NW 26.5 mph 42.6 mph N/A   Clear
3:55 PM 88.0 °F 34.0 °F 15% 29.68 in 10.0 mi NW 23.0 mph 31.1 mph N/A   Clear
4:55 PM 87.1 °F 33.1 °F 15% 29.68 in 10.0 mi NW 19.6 mph 29.9 mph N/A   Clear
5:55 PM 84.9 °F 28.9 °F 13% 29.69 in 10.0 mi NNW 24.2 mph 33.4 mph N/A   Clear
6:55 PM 82.9 °F 30.9 °F 15% 29.70 in 10.0 mi NNW 21.9 mph 27.6 mph N/A   Clear
7:55 PM 79.0 °F 30.9 °F 17% 29.72 in 10.0 mi NNW 15.0 mph - N/A   Clear
8:55 PM 73.0 °F 37.0 °F 27% 29.75 in 10.0 mi North 16.1 mph - N/A   Clear
9:55 PM 66.9 °F 41.0 °F 39% 29.79 in 10.0 mi North 15.0 mph - N/A   Clear
10:55 PM 64.9 °F 42.1 °F 43% 29.81 in 10.0 mi North 12.7 mph - N/A   Clear
11:55 PM 60.1 °F 43.0 °F 53% 29.82 in 10.0 mi NNE 8.1 mph - N/A   Clear